This is the latest recevied weather packets stored in our database for station/object CE3PA-5. If no packets are shown the sender has not sent any weather packets the latest 10 day(s).
| Time | Temp. | Humidity | Pressure | Rain* | Wind** | Luminosity | Snow |
|---|---|---|---|---|---|---|---|
| 1778263862 | 21.67° C | 19% | 753.4 hPa | - | - | - | - |
| 1778262961 | 22.22° C | 19% | 753.3 hPa | - | - | - | - |
| 1778261165 | 22.78° C | 19% | 753.6 hPa | - | - | - | - |
| 1778256664 | 22.22° C | 18% | 754 hPa | - | - | - | - |
| 1778253964 | 20.56° C | 18% | 754.2 hPa | - | - | - | - |
| 1778253064 | 20.56° C | 18% | 754.2 hPa | - | - | - | - |
| 1778252163 | 19.44° C | 18% | 754.4 hPa | - | - | - | - |
| 1778251263 | 18.89° C | 19% | 754.3 hPa | - | - | - | - |
| 1778249463 | 16.67° C | 19% | 754.3 hPa | - | - | - | - |
| 1778248563 | 15° C | 20% | 754.3 hPa | - | - | - | - |
| 1778246763 | 11.67° C | 21% | 754.2 hPa | - | - | - | - |
| 1778245862 | 9.44° C | 21% | 754.2 hPa | - | - | - | - |
| 1778244962 | 6.67° C | 22% | 754.3 hPa | - | - | - | - |
| 1778244062 | 3.33° C | 23% | 754.2 hPa | - | - | - | - |
| 1778243162 | 1.11° C | 23% | 754.2 hPa | - | - | - | - |
| 1778242261 | -1.11° C | 23% | 754.4 hPa | - | - | - | - |
| 1778241361 | -1.11° C | 23% | 754 hPa | - | - | - | - |
| 1778240464 | -1.67° C | 24% | 754.4 hPa | - | - | - | - |
| 1778239564 | -2.22° C | 24% | 754.4 hPa | - | - | - | - |
| 1778238664 | -2.22° C | 24% | 754.5 hPa | - | - | - | - |
| 1778237765 | -1.67° C | 24% | 754.4 hPa | - | - | - | - |
| 1778236863 | -1.67° C | 24% | 754.6 hPa | - | - | - | - |
| 1778235963 | -1.67° C | 24% | 754.5 hPa | - | - | - | - |
| 1778235065 | -1.67° C | 24% | 754.2 hPa | - | - | - | - |
| 1778234163 | -1.11° C | 24% | 754.1 hPa | - | - | - | - |
* Rain since midnight (hover to see other rain measurements)
** Current wind speed in m/s (hover to see current wind gust speed)